Opa Locka, FL

1:55 PM EDT on September 28, 2016 (GMT -0400)
Opa Locka

Weather History for KOPF - September, 2012

Change the Weather History Date:

Saturday, September 15, 2012

  Actual Average Record
Temperature  
Mean Temperature 82 °F -  
Max Temperature 89 °F 88 °F 95 °F (2006)
Min Temperature 75 °F 73 °F 65 °F (1985)
Cooling Degree Days 16    
Growing Degree Days 32 (Base 50)    
Moisture  
Dew Point 74 °F    
Average Humidity 78    
Maximum Humidity 90    
Minimum Humidity 63    
Precipitation  
Precipitation 0.00 in - - ()
Sea Level Pressure  
Sea Level Pressure 30.02 in    
Wind  
Wind Speed 5 mph (ENE)    
Max Wind Speed 15 mph    
Max Gust Speed 20 mph    
Visibility 10 miles    
Events Rain    
Averages and records for this station are not official NWS values.
T = Trace of Precipitation, MM = Missing Value Source: NWS Daily Summary

Daily Weather History Graph

Daily Weather History Graph

Search for Another Location

Airport or City:

Trip Planner

Search our weather history database for the weather conditions in past years. The results will help you decide how hot, cold, wet, or windy it might be!

Date:

Astronomy

Sep. 15, 2012 Rise Set
Actual Time 7:07 AM EDT 7:24 PM EDT
Civil Twilight 6:44 AM EDT 7:47 PM EDT
Nautical Twilight 6:17 AM EDT 8:14 PM EDT
Astronomical Twilight 5:49 AM EDT 8:41 PM EDT
Moon 6:34 AM EDT (9/15) 6:59 PM EDT (9/15)
Length of Visible Light 13h 03m
Length of Day
12h 17m
Waning Crescent, 0% of the Moon is Illuminated
Sep 15
Waning Crescent
Sep 15
New
Sep 22
First Quarter
Sep 29
Full
Oct 8
Last Quarter

Hourly Weather History & Observations

Time (EDT) Temp. Heat Index Dew Point Humidity Pressure Visibility Wind Dir Wind Speed Gust Speed Precip Events Conditions
12:53 AM 78.1 °F - 73.9 °F 87% 30.02 in 10.0 mi Calm Calm - N/A   Clear
1:53 AM 77.0 °F - 73.9 °F 90% 30.01 in 10.0 mi North 4.6 mph - N/A   Clear
2:46 AM 78.8 °F - 75.2 °F 89% 30.00 in 10.0 mi Calm Calm - N/A   Mostly Cloudy
2:53 AM 78.1 °F - 75.0 °F 90% 30.01 in 10.0 mi Calm Calm - N/A   Mostly Cloudy
3:01 AM 78.8 °F - 75.2 °F 89% 30.00 in 10.0 mi North 3.5 mph - N/A   Mostly Cloudy
3:53 AM 78.8 °F - 75.2 °F 89% 29.99 in 10.0 mi North 5.8 mph - N/A   Scattered Clouds
4:53 AM 75.9 °F - 70.0 °F 82% 29.98 in 10.0 mi Calm Calm - N/A   Clear
5:53 AM 77.0 °F - 73.0 °F 88% 29.99 in 10.0 mi North 4.6 mph - N/A   Partly Cloudy
6:53 AM 77.0 °F - 73.0 °F 88% 30.02 in 10.0 mi North 4.6 mph - N/A   Partly Cloudy
7:53 AM 77.0 °F - 73.0 °F 88% 30.03 in 10.0 mi NE 4.6 mph - N/A   Scattered Clouds
8:53 AM 81.0 °F 86.7 °F 75.0 °F 82% 30.05 in 10.0 mi NE 8.1 mph - N/A   Scattered Clouds
9:53 AM 84.0 °F 91.2 °F 73.9 °F 72% 30.05 in 10.0 mi East 11.5 mph - N/A   Scattered Clouds
10:53 AM 86.0 °F 95.1 °F 75.0 °F 70% 30.05 in 10.0 mi East 10.4 mph - N/A   Scattered Clouds
11:53 AM 87.1 °F 94.5 °F 73.0 °F 63% 30.04 in 10.0 mi ESE 10.4 mph - N/A   Partly Cloudy
12:53 PM 88.0 °F 96.5 °F 73.9 °F 63% 30.04 in 10.0 mi ESE 10.4 mph - N/A   Scattered Clouds
1:53 PM 88.0 °F 96.5 °F 73.9 °F 63% 30.02 in 10.0 mi ESE 12.7 mph 18.4 mph N/A   Scattered Clouds
2:53 PM 87.1 °F 96.3 °F 75.0 °F 67% 30.01 in 10.0 mi ESE 15.0 mph 19.6 mph N/A   Mostly Cloudy
3:53 PM 86.0 °F 95.1 °F 75.0 °F 70% 29.99 in 10.0 mi ESE 15.0 mph - N/A   Scattered Clouds
4:53 PM 84.9 °F 92.1 °F 73.9 °F 69% 29.98 in 10.0 mi ESE 11.5 mph - N/A   Partly Cloudy
5:53 PM 82.9 °F 88.0 °F 72.0 °F 69% 30.00 in 10.0 mi East 11.5 mph - N/A   Partly Cloudy
6:53 PM 82.0 °F 86.7 °F 72.0 °F 71% 29.99 in 10.0 mi East 12.7 mph - N/A   Clear
7:53 PM 81.0 °F 85.8 °F 73.0 °F 77% 30.00 in 10.0 mi East 5.8 mph - N/A   Partly Cloudy
8:53 PM 82.9 °F 87.5 °F 71.1 °F 67% 30.02 in 10.0 mi East 11.5 mph - N/A   Mostly Cloudy
9:53 PM 82.0 °F 86.7 °F 72.0 °F 71% 30.04 in 10.0 mi East 9.2 mph - N/A   Overcast
10:53 PM 79.0 °F - 73.0 °F 82% 30.05 in 10.0 mi ENE 9.2 mph - 0.00 in Rain Light Rain
11:53 PM 78.1 °F - 73.0 °F 84% 30.04 in 10.0 mi ENE 4.6 mph - 0.00 in   Partly Cloudy